Location: Bothwell
(42.3833°S, 147.0000°E)
Time: 10:39:14
(UTC+11:00)

CUBEBUG 2 - Pass Details

Date: 07 October 2023
Orbit: 575 x 676 km, 97.8° (Epoch: 04 December)

Event Time Altitude Azimuth Distance (km) Brightness Sun altitude
Exits shadow 02:37:43 13° 188° (S) 1,920 ? -37.5°
Drops below altitude 10° 02:38:15 10° 189° (S) 2,133 ? -37.5°
Sets 02:40:30 0° 190° (S) 3,044 ? -37.3°
